Regional Weather Roundup
Issued by NWS

Home | Current Version | Previous Version | Graphics & Text | Print | Product List | Glossary On
Versions: 1 2 3 4 5 6 7 8 9 10 11 12 13 14 15 16 17 18 19 20 21 22 23 24 25 26 27 28 29 30 31 32 33 34 35 36 37 38 39 40 41 42 43 44 45 46 47 48 49 50
000
ASUS43 KFSD 060310
RWRSD

WEATHER ROUNDUP FOR SOUTH DAKOTA
NATIONAL WEATHER SERVICE SIOUX FALLS SD
1000 PM CDT TUE MAY 05 2015

NOTE: "FAIR" INDICATES FEW OR NO CLOUDS BELOW 12,000 FEET WITH NO
SIGNIFICANT WEATHER AND/OR OBSTRUCTIONS TO VISIBILITY.


SDZ001>005-009-010-012>017-060400-
NORTHWEST AND NORTH CENTRAL SOUTH DAKOTA

CITY           SKY/WX    TMP DP  RH WIND       PRES   REMARKS
BUFFALO          N/A     60  50  69 SE20G25   29.72S
FAITH            N/A     60  51  72 SE17      29.83R
MOBRIDGE       CLOUDY    61  53  75 SE13      29.86R
$$

SDZ012>016-024>037-041>051-057-063-072>074-060400-
SOUTHWEST AND SOUTH CENTRAL SOUTH DAKOTA

CITY           SKY/WX    TMP DP  RH WIND       PRES   REMARKS
RAPID CTY ARPT CLOUDY    60  51  72 S14       29.83S
PIERRE         LGT RAIN  58  56  93 SE9       29.88S
CUSTER         CLOUDY    50  46  86 S8G17     29.89S
PHILIP         CLOUDY    61  55  81 SE10      29.86R
PINE RIDGE     CLOUDY    56  49  77 SE14      29.86S
SPEARFISH      FAIR      57  48  72 SE13      29.79F
WINNER         CLOUDY    61  57  87 E3        29.91S
$$

SDZ004>011-016>023-039-040-060400-
NORTHEAST SOUTH DAKOTA

CITY           SKY/WX    TMP DP  RH WIND       PRES   REMARKS
ABERDEEN       CLOUDY    65  56  72 SE15      29.94R
WATERTOWN      CLOUDY    60  56  86 SE12      30.00R
BROOKINGS      CLOUDY    61  55  82 SE16      30.02R
SISSETON         N/A     61  55  81 S16       29.99R
$$

SDZ017-020-022-023-036>040-048>070-060400-
SOUTHEAST SOUTH DAKOTA

CITY           SKY/WX    TMP DP  RH WIND       PRES   REMARKS
SIOUX FALLS    CLOUDY    63  59  87 SE14      29.99S
HURON          CLOUDY    62  58  86 SE8       29.94R
CHAMBERLAIN    CLOUDY    58  57  96 SE6       29.91S FOG
MITCHELL       CLOUDY    64  58  80 SE13      29.94S
YANKTON        CLOUDY    68  57  68 E8        29.94S
$$

ABBREVIATIONS USED IN REMARKS
   TC - TEMPERATURE IN CELSIUS
  WCI - WIND CHILL INDEX
   HX - HEAT INDEX
  VSB - VISIBILITY




USA.gov is the U.S. government's official web portal to all federal, state and local government web resources and services.